Date String (YYYY-MM-DD hh:mm:ss) UTC,Instrument flags,Ambient pressure (hPa),Sample flow (lpm),Bypass flow (lpm),Sample temperature (°C),Ambient temperature (°C),ASC tube jacket temperature (°C),LED temperature (°C),Box temperature (°C),Sample RH (%),Span deviation,Mass concentration (μg/m³),Mass concentration (μg/m³),Mass concentration (μg/m³)
DateTimeUTC,F1_M11,P_M11,Q1_M11,Q2_M11,T1_M11,T2_M11,T3_M11,T4_M11,T5_M11,U1_M11,ZSPAN_M11,X0_M11,X2_M11,X1_M11
2022-11-19 22:00:00,,0830.1,5.02,0.00,26.4,25.2,00.0,35.3,28.3,08.4,0000.0,0012.94,0006.21,0005.74
2022-11-19 22:01:00,,0830.1,4.99,0.00,26.4,25.2,00.0,35.3,28.3,08.3,0000.0,0012.50,0006.11,0005.65
2022-11-19 22:02:00,,0830.1,4.99,0.00,26.5,25.2,00.0,35.3,28.3,08.3,0000.0,0012.70,0006.05,0005.58
2022-11-19 22:03:00,,0830.1,5.01,0.00,26.5,25.2,00.0,35.3,28.3,08.5,0000.0,0012.57,0005.96,0005.50
2022-11-19 22:04:00,,0830.1,5.01,0.00,26.5,25.2,00.0,35.3,28.3,08.7,0000.0,0012.45,0005.88,0005.42
2022-11-19 22:05:00,,0830.1,4.98,0.00,26.5,25.2,00.0,35.3,28.4,08.7,0000.0,0012.31,0005.76,0005.30
2022-11-19 22:06:00,,0830.1,5.00,0.00,26.5,25.2,00.0,35.3,28.4,08.4,0000.0,0012.05,0005.64,0005.19
2022-11-19 22:07:00,,0830.1,5.01,0.00,26.5,25.2,00.0,35.3,28.3,08.2,0000.0,0012.02,0005.57,0005.10
2022-11-19 22:08:00,,0830.1,4.99,0.00,26.5,25.2,00.0,35.3,28.3,08.2,0000.0,0011.60,0005.55,0005.03
2022-11-19 22:09:00,,0830.0,5.00,0.00,26.4,25.1,00.0,35.3,28.2,08.2,0000.0,0011.29,0005.49,0004.94
2022-11-19 22:10:00,,0830.0,5.01,0.00,26.4,25.0,00.0,35.3,28.2,08.3,0000.0,0011.06,0005.41,0004.88
2022-11-19 22:11:00,,0830.0,5.01,0.00,26.4,25.0,00.0,35.3,28.2,08.3,0000.0,0010.78,0005.44,0004.86
2022-11-19 22:12:00,,0830.0,4.99,0.00,26.4,24.9,00.0,35.3,28.2,08.0,0000.0,0010.66,0005.42,0004.83
2022-11-19 22:13:00,,0829.9,4.99,0.00,26.3,24.9,00.0,35.3,28.2,08.2,0000.0,0011.02,0005.38,0004.79
2022-11-19 22:14:00,,0829.9,5.01,0.00,26.3,24.9,00.0,35.3,28.1,08.5,0000.0,0011.49,0005.35,0004.74
2022-11-19 22:15:00,,0830.0,5.00,0.00,26.3,25.0,00.0,35.3,28.1,08.2,0000.0,0011.77,0005.34,0004.71
2022-11-19 22:16:00,,0830.0,5.00,0.00,26.3,25.0,00.0,35.3,28.2,08.2,0000.0,0012.01,0005.38,0004.72
2022-11-19 22:17:00,,0830.0,5.01,0.00,26.4,25.1,00.0,35.3,28.2,08.1,0000.0,0012.16,0005.43,0004.75
2022-11-19 22:18:00,,0829.9,4.99,0.00,26.4,25.1,00.0,35.3,28.3,08.1,0000.0,0011.95,0005.45,0004.76
2022-11-19 22:19:00,,0829.9,5.00,0.00,26.4,25.1,00.0,35.3,28.3,08.0,0000.0,0011.59,0005.44,0004.77
2022-11-19 22:20:00,,0829.9,5.01,0.00,26.4,25.1,00.0,35.3,28.3,08.2,0000.0,0011.24,0005.45,0004.80
2022-11-19 22:21:00,,0829.9,5.00,0.00,26.4,25.2,00.0,35.3,28.3,08.2,0000.0,0011.36,0005.52,0004.86
2022-11-19 22:22:00,,0829.9,5.00,0.00,26.4,25.2,00.0,35.3,28.3,08.4,0000.0,0011.64,0005.58,0004.94
2022-11-19 22:23:00,,0830.0,5.00,0.00,26.4,25.2,00.0,35.3,28.3,08.4,0000.0,0011.98,0005.66,0005.01
2022-11-19 22:24:00,,0830.0,4.99,0.00,26.4,25.2,00.0,35.3,28.3,08.4,0000.0,0011.36,0005.74,0005.10
2022-11-19 22:25:00,,0830.0,5.00,0.00,26.4,25.2,00.0,35.3,28.3,08.5,0000.0,0010.86,0005.81,0005.19
2022-11-19 22:26:00,,0830.0,5.01,0.00,26.5,25.2,00.0,35.3,28.3,08.7,0000.0,0010.88,0005.88,0005.27
2022-11-19 22:27:00,,0830.0,5.01,0.00,26.5,25.2,00.0,35.3,28.3,08.7,0000.0,0010.95,0005.92,0005.33
2022-11-19 22:28:00,,0829.9,5.00,0.00,26.5,25.2,00.0,35.3,28.3,08.5,0000.0,0010.93,0005.93,0005.37
2022-11-19 22:29:00,,0829.9,4.99,0.00,26.5,25.2,00.0,35.3,28.3,08.4,0000.0,0011.45,0005.99,0005.44
2022-11-19 22:30:00,,0829.9,4.99,0.00,26.5,25.2,00.0,35.3,28.3,08.4,0000.0,0012.01,0006.04,0005.50
2022-11-19 22:31:00,,0829.9,5.00,0.00,26.5,25.2,00.0,35.3,28.4,08.2,0000.0,0012.52,0006.11,0005.57
2022-11-19 22:32:00,,0829.9,5.01,0.00,26.5,25.2,00.0,35.3,28.4,08.2,0000.0,0012.63,0006.12,0005.59
2022-11-19 22:33:00,,0829.9,5.01,0.00,26.5,25.3,00.0,35.3,28.4,08.0,0000.0,0012.54,0006.12,0005.60
2022-11-19 22:34:00,,0829.9,5.00,0.00,26.5,25.3,00.0,35.4,28.4,08.0,0000.0,0012.49,0006.14,0005.62
2022-11-19 22:35:00,,0829.9,4.99,0.00,26.5,25.3,00.0,35.4,28.4,08.0,0000.0,0013.42,0006.15,0005.62
2022-11-19 22:36:00,,0829.9,5.01,0.00,26.6,25.3,00.0,35.4,28.4,08.1,0000.0,0013.74,0006.18,0005.61
2022-11-19 22:37:00,,0829.9,5.00,0.00,26.5,25.3,00.0,35.4,28.4,08.0,0000.0,0014.93,0006.21,0005.61
2022-11-19 22:38:00,,0830.0,5.00,0.00,26.6,25.3,00.0,35.4,28.4,08.0,0000.0,0015.11,0006.26,0005.64
2022-11-19 22:39:00,,0829.9,5.00,0.00,26.6,25.3,00.0,35.4,28.4,08.0,0000.0,0015.21,0006.29,0005.67
2022-11-19 22:40:00,,0829.9,5.00,0.00,26.6,25.3,00.0,35.4,28.4,07.9,0000.0,0015.04,0006.33,0005.68
2022-11-19 22:41:00,,0829.8,5.00,0.00,26.6,25.3,00.0,35.4,28.4,07.9,0000.0,0014.77,0006.35,0005.70
2022-11-19 22:42:00,,0829.9,5.01,0.00,26.6,25.3,00.0,35.4,28.4,07.9,0000.0,0014.85,0006.35,0005.69
2022-11-19 22:43:00,,0829.9,5.01,0.00,26.6,25.3,00.0,35.4,28.5,07.9,0000.0,0014.93,0006.39,0005.70
2022-11-19 22:44:00,,0829.9,4.99,0.00,26.6,25.3,00.0,35.4,28.5,07.9,0000.0,0014.86,0006.38,0005.68
2022-11-19 22:45:00,,0829.8,5.00,0.00,26.6,25.3,00.0,35.4,28.5,07.9,0000.0,0014.48,0006.33,0005.67
2022-11-19 22:46:00,,0829.9,4.99,0.00,26.6,25.3,00.0,35.4,28.5,07.8,0000.0,0014.20,0006.29,0005.67
2022-11-19 22:47:00,,0829.9,4.99,0.00,26.6,25.3,00.0,35.5,28.5,07.8,0000.0,0014.09,0006.27,0005.66
2022-11-19 22:48:00,,0829.9,5.00,0.00,26.6,25.3,00.0,35.5,28.5,07.8,0000.0,0012.83,0006.24,0005.66
2022-11-19 22:49:00,,0829.9,5.00,0.00,26.6,25.3,00.0,35.5,28.5,07.8,0000.0,0012.46,0006.22,0005.66
2022-11-19 22:50:00,,0829.8,5.00,0.00,26.7,25.3,00.0,35.5,28.5,07.8,0000.0,0012.45,0006.22,0005.66
2022-11-19 22:51:00,,0829.9,4.98,0.00,26.7,25.3,00.0,35.5,28.5,07.7,0000.0,0012.26,0006.21,0005.65
2022-11-19 22:52:00,,0829.9,5.00,0.00,26.7,25.3,00.0,35.5,28.5,07.6,0000.0,0011.95,0006.17,0005.61
2022-11-19 22:53:00,,0829.9,5.00,0.00,26.7,25.3,00.0,35.5,28.5,07.5,0000.0,0011.45,0006.12,0005.56
2022-11-19 22:54:00,,0829.8,5.01,0.00,26.7,25.3,00.0,35.5,28.5,07.5,0000.0,0012.10,0006.09,0005.52
2022-11-19 22:55:00,,0829.8,5.01,0.00,26.7,25.3,00.0,35.5,28.5,07.5,0000.0,0012.40,0006.07,0005.48
2022-11-19 22:56:00,,0829.8,5.00,0.00,26.7,25.3,00.0,35.5,28.5,07.6,0000.0,0012.38,0006.05,0005.44
2022-11-19 22:57:00,,0829.8,4.98,0.00,26.7,25.3,00.0,35.5,28.6,07.6,0000.0,0011.88,0006.04,0005.42
2022-11-19 22:58:00,,0829.8,4.99,0.00,26.7,25.3,00.0,35.5,28.5,07.6,0000.0,0011.59,0006.02,0005.41
2022-11-19 22:59:00,,0829.8,5.01,0.00,26.7,25.3,00.0,35.5,28.5,07.7,0000.0,0011.55,0006.00,0005.39
